| time (UTC) | temp F | wind direction | speed MPH | gust MPH | rain 1hr in | rain 24hr in | rain mn in | humidity % | barometer mb |
| 20260507143101 | 55 | 245 | 1.0 | 6.0 | 0.00 | 0.23 | 0.00 | 62 | 1007.2 |
| 20260507142601 | 55 | 280 | 1.0 | 6.0 | 0.00 | 0.23 | 0.00 | 58 | 1007.2 |
| 20260507142326 | 55 | 0 | 2.0 | 8.0 | 0.00 | 0.23 | 0.00 | 56 | 1007.2 |
| 20260507141600 | 55 | 334 | 3.0 | 9.0 | 0.00 | 0.23 | 0.00 | 63 | 1007.2 |
| 20260507140600 | 55 | 292 | 3.0 | 11.0 | 0.00 | 0.23 | 0.00 | 63 | 1007.2 |
| 20260507140101 | 55 | 355 | 4.0 | 8.0 | 0.00 | 0.23 | 0.00 | 61 | 1007.2 |
| 20260507135601 | 56 | 333 | 2.0 | 8.0 | 0.00 | 0.23 | 0.00 | 62 | 1007.2 |
| 20260507135327 | 56 | 265 | 2.0 | 9.0 | 0.00 | 0.23 | 0.00 | 62 | 1007.2 |
| 20260507134602 | 56 | 38 | 2.0 | 9.0 | 0.00 | 0.23 | 0.00 | 53 | 1007.2 |
| 20260507134331 | 56 | 48 | 2.0 | 10.0 | 0.00 | 0.23 | 0.00 | 61 | 1007.2 |
| 20260507133601 | 55 | 30 | 3.0 | 10.0 | 0.00 | 0.23 | 0.00 | 61 | 1007.2 |
| 20260507133323 | 55 | 325 | 4.0 | 9.0 | 0.00 | 0.23 | 0.00 | 62 | 1007.2 |
| 20260507132601 | 55 | 78 | 2.0 | 8.0 | 0.00 | 0.23 | 0.00 | 62 | 1007.3 |
| 20260507132101 | 54 | 273 | 2.0 | 8.0 | 0.00 | 0.23 | 0.00 | 53 | 1007.3 |
| 20260507131601 | 54 | 0 | 2.0 | 7.0 | 0.00 | 0.23 | 0.00 | 66 | 1007.5 |
| 20260507131101 | 54 | 273 | 3.0 | 7.0 | 0.00 | 0.23 | 0.00 | 68 | 1007.6 |
| 20260507130823 | 53 | 311 | 2.0 | 7.0 | 0.00 | 0.23 | 0.00 | 68 | 1007.6 |
| 20260507125827 | 53 | 333 | 2.0 | 5.0 | 0.00 | 0.23 | 0.00 | 69 | 1007.5 |
| 20260507125101 | 52 | 271 | 2.0 | 7.0 | 0.00 | 0.23 | 0.00 | 70 | 1007.5 |
| 20260507124601 | 52 | 338 | 3.0 | 7.0 | 0.00 | 0.23 | 0.00 | 70 | 1007.5 |
| 20260507124328 | 52 | 5 | 1.0 | 5.0 | 0.00 | 0.23 | 0.00 | 71 | 1007.5 |
| 20260507123601 | 52 | 340 | 2.0 | 5.0 | 0.00 | 0.23 | 0.00 | 73 | 1007.5 |
| 20260507123101 | 51 | 0 | 2.0 | 5.0 | 0.00 | 0.23 | 0.00 | 72 | 1007.5 |
| 20260507122601 | 51 | 348 | 0.0 | 5.0 | 0.00 | 0.23 | 0.00 | 75 | 1007.6 |
| 20260507122101 | 51 | 315 | 2.0 | 5.0 | 0.00 | 0.23 | 0.00 | 67 | 1007.6 |
| 20260507121824 | 50 | 40 | 2.0 | 5.0 | 0.00 | 0.23 | 0.00 | 76 | 1007.7 |
| 20260507121323 | 50 | 34 | 3.0 | 6.0 | 0.00 | 0.23 | 0.00 | 69 | 1007.7 |
| 20260507120600 | 49 | 277 | 3.0 | 6.0 | 0.00 | 0.23 | 0.00 | 76 | 1007.8 |
| 20260507115601 | 49 | 11 | 2.0 | 5.0 | 0.00 | 0.23 | 0.00 | 80 | 1007.8 |
| 20260507115101 | 48 | 255 | 1.0 | 3.0 | 0.00 | 0.23 | 0.00 | 82 | 1007.8 |
| 20260507114602 | 48 | 25 | 1.0 | 3.0 | 0.00 | 0.23 | 0.00 | 82 | 1007.8 |
| 20260507114101 | 48 | 264 | 2.0 | 4.0 | 0.00 | 0.23 | 0.00 | 82 | 1007.8 |
| 20260507113831 | 48 | 339 | 0.0 | 5.0 | 0.00 | 0.23 | 0.00 | 83 | 1007.7 |
| 20260507113100 | 48 | 317 | 3.0 | 5.0 | 0.00 | 0.23 | 0.00 | 83 | 1007.6 |
| 20260507112600 | 47 | 346 | 1.0 | 3.0 | 0.00 | 0.23 | 0.00 | 84 | 1007.6 |
| 20260507112100 | 47 | 19 | 0.0 | 3.0 | 0.00 | 0.23 | 0.00 | 85 | 1007.6 |
| 20260507111601 | 47 | 32 | 1.0 | 3.0 | 0.00 | 0.23 | 0.00 | 85 | 1007.7 |
| 20260507111100 | 47 | 351 | 1.0 | 4.0 | 0.00 | 0.23 | 0.00 | 84 | 1007.7 |
| 20260507110601 | 47 | 288 | 1.0 | 4.0 | 0.00 | 0.23 | 0.00 | 84 | 1007.6 |
| 20260507110100 | 47 | 352 | 1.0 | 4.0 | 0.00 | 0.23 | 0.00 | 84 | 1007.4 |
| 20260507105601 | 47 | 5 | 1.0 | 4.0 | 0.00 | 0.23 | 0.00 | 85 | 1007.4 |
| 20260507105101 | 47 | 20 | 0.0 | 3.0 | 0.00 | 0.23 | 0.00 | 85 | 1007.4 |
| 20260507104601 | 47 | 306 | 1.0 | 3.0 | 0.00 | 0.23 | 0.00 | 85 | 1007.3 |
| 20260507104101 | 47 | 78 | 0.0 | 3.0 | 0.00 | 0.23 | 0.00 | 85 | 1007.2 |
| 20260507103830 | 47 | 72 | 1.0 | 3.0 | 0.00 | 0.23 | 0.00 | 85 | 1007.2 |
| 20260507103101 | 47 | 355 | 0.0 | 3.0 | 0.00 | 0.23 | 0.00 | 85 | 1007.3 |
| 20260507102600 | 47 | 5 | 0.0 | 2.0 | 0.00 | 0.23 | 0.00 | 84 | 1007.3 |
| 20260507102101 | 47 | 341 | 0.0 | 3.0 | 0.00 | 0.23 | 0.00 | 84 | 1007.3 |
| 20260507101602 | 47 | 343 | 2.0 | 3.0 | 0.00 | 0.23 | 0.00 | 84 | 1007.1 |
| 20260507101101 | 47 | 5 | 1.0 | 3.0 | 0.00 | 0.23 | 0.00 | 84 | 1007.2 |
| 20260507100602 | 47 | 22 | 0.0 | 3.0 | 0.00 | 0.23 | 0.00 | 84 | 1007.2 |
| 20260507095603 | 47 | 22 | 0.0 | 0.0 | 0.00 | 0.23 | 0.00 | 84 | 1007.0 |
| 20260507094602 | 47 | 22 | 1.0 | 4.0 | 0.00 | 0.23 | 0.00 | 83 | 1007.4 |
| 20260507094326 | 47 | 331 | 0.0 | 4.0 | 0.00 | 0.23 | 0.00 | 84 | 1007.5 |
| 20260507093602 | 47 | 5 | 2.0 | 4.0 | 0.00 | 0.23 | 0.00 | 84 | 1007.2 |
| 20260507093101 | 47 | 0 | 2.0 | 4.0 | 0.00 | 0.23 | 0.00 | 83 | 1007.2 |
| 20260507092602 | 47 | 32 | 1.0 | 5.0 | 0.00 | 0.23 | 0.00 | 85 | 1007.4 |
| 20260507092322 | 48 | 346 | 2.0 | 5.0 | 0.00 | 0.23 | 0.00 | 84 | 1007.3 |
| 20260507091602 | 48 | 347 | 1.0 | 3.0 | 0.00 | 0.23 | 0.00 | 85 | 1007.2 |
| 20260507091101 | 48 | 319 | 1.0 | 6.0 | 0.00 | 0.23 | 0.00 | 85 | 1007.4 |
| 20260507090825 | 48 | 333 | 2.0 | 6.0 | 0.00 | 0.23 | 0.00 | 86 | 1007.3 |
| 20260507090325 | 48 | 269 | 1.0 | 4.0 | 0.00 | 0.23 | 0.00 | 86 | 1007.5 |
| 20260507085602 | 48 | 316 | 2.0 | 4.0 | 0.00 | 0.23 | 0.00 | 87 | 1007.5 |
| 20260507085323 | 48 | 265 | 1.0 | 4.0 | 0.00 | 0.23 | 0.00 | 88 | 1007.6 |
| 20260507084602 | 48 | 307 | 1.0 | 3.0 | 0.00 | 0.23 | 0.00 | 88 | 1007.4 |
| 20260507084323 | 48 | 293 | 1.0 | 2.0 | 0.00 | 0.23 | 0.00 | 88 | 1007.1 |
| 20260507083602 | 48 | 282 | 1.0 | 3.0 | 0.00 | 0.23 | 0.00 | 88 | 1007.2 |
| 20260507083326 | 48 | 349 | 0.0 | 3.0 | 0.00 | 0.23 | 0.00 | 88 | 1007.0 |
| 20260507082602 | 49 | 266 | 0.0 | 3.0 | 0.00 | 0.23 | 0.00 | 88 | 1006.9 |
| 20260507082101 | 49 | 264 | 1.0 | 3.0 | 0.00 | 0.23 | 0.00 | 87 | 1007.1 |
| 20260507081602 | 49 | 349 | 1.0 | 3.0 | 0.00 | 0.23 | 0.00 | 87 | 1006.9 |
| 20260507081101 | 49 | 19 | 1.0 | 3.0 | 0.00 | 0.23 | 0.00 | 87 | 1006.8 |
| 20260507080602 | 49 | 0 | 0.0 | 3.0 | 0.00 | 0.23 | 0.00 | 87 | 1006.8 |
| 20260507080100 | 49 | 345 | 0.0 | 2.0 | 0.00 | 0.23 | 0.00 | 86 | 1006.6 |
| 20260507075823 | 49 | 345 | 1.0 | 2.0 | 0.00 | 0.23 | 0.00 | 85 | 1006.8 |
| 20260507075100 | 49 | 16 | 1.0 | 3.0 | 0.00 | 0.23 | 0.00 | 85 | 1006.9 |
| 20260507074825 | 49 | 279 | 1.0 | 4.0 | 0.00 | 0.23 | 0.00 | 85 | 1007.1 |
| 20260507074322 | 49 | 311 | 2.0 | 5.0 | 0.00 | 0.23 | 0.00 | 85 | 1007.1 |
| 20260507073602 | 49 | 0 | 2.0 | 5.0 | 0.00 | 0.23 | 0.00 | 84 | 1006.9 |
| 20260507073101 | 49 | 337 | 2.0 | 8.0 | 0.00 | 0.23 | 0.00 | 85 | 1007.1 |
| 20260507072827 | 49 | 11 | 3.0 | 8.0 | 0.00 | 0.23 | 0.00 | 85 | 1006.9 |
| 20260507072322 | 49 | 9 | 1.0 | 4.0 | 0.00 | 0.23 | 0.00 | 86 | 1006.5 |
| 20260507071602 | 49 | 24 | 1.0 | 5.0 | 0.00 | 0.23 | 0.00 | 87 | 1006.5 |
| 20260507071100 | 49 | 331 | 2.0 | 5.0 | 0.00 | 0.23 | 0.00 | 87 | 1006.7 |
| 20260507070601 | 49 | 355 | 0.0 | 7.0 | 0.00 | 0.23 | 0.00 | 87 | 1006.6 |
| 20260507070101 | 49 | 355 | 2.0 | 7.0 | 0.00 | 0.23 | 0.00 | 87 | 1006.6 |
| 20260507065602 | 50 | 20 | 1.0 | 4.0 | 0.00 | 0.23 | 0.00 | 87 | 1006.6 |
| 20260507065101 | 50 | 291 | 0.0 | 3.0 | 0.00 | 0.23 | 0.00 | 88 | 1006.9 |
| 20260507064603 | 50 | 347 | 1.0 | 5.0 | 0.00 | 0.23 | 0.00 | 87 | 1006.3 |
| 20260507064101 | 50 | 288 | 2.0 | 7.0 | 0.00 | 0.23 | 0.00 | 87 | 1006.3 |
| 20260507063825 | 50 | 319 | 1.0 | 7.0 | 0.00 | 0.23 | 0.00 | 87 | 1006.4 |
| 20260507063324 | 50 | 337 | 1.0 | 6.0 | 0.00 | 0.23 | 0.00 | 88 | 1006.4 |
| 20260507062837 | 50 | 5 | 1.0 | 4.0 | 0.00 | 0.23 | 0.00 | 87 | 1006.3 |
| 20260507062101 | 50 | 352 | 2.0 | 4.0 | 0.00 | 0.23 | 0.00 | 87 | 1006.0 |
| 20260507060602 | 50 | 294 | 0.0 | 2.0 | 0.00 | 0.23 | 0.00 | 88 | 1006.4 |
| 20260507060323 | 50 | 351 | 0.0 | 4.0 | 0.00 | 0.23 | 0.00 | 87 | 1006.4 |
| 20260507055101 | 50 | 286 | 1.0 | 3.0 | 0.00 | 0.23 | 0.00 | 87 | 1006.7 |
| 20260507054602 | 50 | 283 | 1.0 | 3.0 | 0.00 | 0.23 | 0.00 | 87 | 1007.0 |
| 20260507054101 | 50 | 32 | 0.0 | 4.0 | 0.00 | 0.23 | 0.00 | 86 | 1007.0 |
| 20260507053603 | 50 | 334 | 0.0 | 4.0 | 0.00 | 0.23 | 0.00 | 86 | 1006.7 |
| 20260507052602 | 50 | 305 | 2.0 | 5.0 | 0.00 | 0.23 | 0.00 | 85 | 1006.9 |
| 20260507052101 | 50 | 10 | 2.0 | 8.0 | 0.00 | 0.23 | 0.00 | 85 | 1006.8 |
| 20260507051602 | 50 | 348 | 2.0 | 8.0 | 0.00 | 0.23 | 0.00 | 85 | 1006.8 |
| 20260507051101 | 50 | 57 | 1.0 | 8.0 | 0.00 | 0.23 | 0.00 | 85 | 1006.7 |
| 20260507050602 | 50 | 328 | 3.0 | 8.0 | 0.00 | 0.23 | 0.00 | 84 | 1006.7 |
| 20260507050322 | 50 | 310 | 3.0 | 8.0 | 0.00 | 0.23 | 0.00 | 84 | 1006.8 |
| 20260507045602 | 50 | 315 | 4.0 | 6.0 | 0.00 | 0.23 | 0.00 | 84 | 1006.6 |
| 20260507045101 | 50 | 22 | 1.0 | 8.0 | 0.00 | 0.23 | 0.00 | 85 | 1006.7 |
| 20260507044601 | 50 | 337 | 3.0 | 8.0 | 0.00 | 0.23 | 0.00 | 84 | 1006.7 |
| 20260507044323 | 51 | 0 | 3.0 | 8.0 | 0.00 | 0.23 | 0.00 | 85 | 1006.5 |
| 20260507043601 | 51 | 279 | 3.0 | 7.0 | 0.00 | 0.23 | 0.00 | 77 | 1006.6 |
| 20260507043101 | 51 | 343 | 3.0 | 8.0 | 0.01 | 0.23 | 0.00 | 85 | 1006.9 |
| 20260507042601 | 51 | 26 | 2.0 | 12.0 | 0.01 | 0.23 | 0.00 | 87 | 1006.7 |
| 20260507042101 | 51 | 346 | 3.0 | 12.0 | 0.01 | 0.23 | 0.00 | 87 | 1006.8 |
| 20260507041601 | 52 | 22 | 3.0 | 9.0 | 0.01 | 0.23 | 0.00 | 88 | 1006.9 |
| 20260507040602 | 52 | 0 | 3.0 | 9.0 | 0.01 | 0.23 | 0.00 | 89 | 1006.7 |
| 20260507040101 | 53 | 355 | 3.0 | 8.0 | 0.01 | 0.23 | 0.00 | 82 | 1006.7 |
| 20260507035602 | 53 | 38 | 1.0 | 6.0 | 0.02 | 0.22 | 0.23 | 91 | 1006.3 |
| 20260507035324 | 53 | 355 | 1.0 | 8.0 | 0.03 | 0.22 | 0.23 | 91 | 1006.2 |
| 20260507034826 | 53 | 16 | 4.0 | 8.0 | 0.03 | 0.22 | 0.23 | 91 | 1006.3 |
| 20260507034102 | 54 | 13 | 2.0 | 8.0 | 0.03 | 0.22 | 0.23 | 91 | 1006.3 |
| 20260507032824 | 55 | 0 | 0.0 | 6.0 | 0.02 | 0.22 | 0.22 | 91 | 1006.2 |
| 20260507032327 | 55 | 5 | 2.0 | 7.0 | 0.02 | 0.22 | 0.22 | 91 | 1006.0 |
| 20260507031602 | 55 | 0 | 2.0 | 9.0 | 0.02 | 0.22 | 0.22 | 91 | 1006.0 |
| 20260507031102 | 55 | 320 | 3.0 | 9.0 | 0.02 | 0.22 | 0.22 | 90 | 1005.9 |
| 20260507030602 | 56 | 76 | 2.0 | 6.0 | 0.02 | 0.22 | 0.22 | 91 | 1005.8 |
| 20260507025102 | 57 | 29 | 4.0 | 9.0 | 0.00 | 0.20 | 0.20 | 91 | 1005.8 |
| 20260507024602 | 57 | 11 | 3.0 | 8.0 | 0.00 | 0.20 | 0.20 | 91 | 1005.9 |
| 20260507023602 | 57 | 331 | 2.0 | 7.0 | 0.00 | 0.20 | 0.20 | 92 | 1005.8 |
| 20260507023322 | 58 | 265 | 1.0 | 7.0 | 0.00 | 0.20 | 0.20 | 92 | 1005.6 |
| 20260507022602 | 58 | 355 | 3.0 | 7.0 | 0.00 | 0.20 | 0.20 | 93 | 1005.6 |
| 20260507022101 | 58 | 273 | 3.0 | 7.0 | 0.00 | 0.20 | 0.20 | 93 | 1005.3 |
| 20260507021602 | 58 | 291 | 2.0 | 4.0 | 0.00 | 0.20 | 0.20 | 93 | 1005.2 |
| 20260507021101 | 58 | 5 | 1.0 | 4.0 | 0.00 | 0.20 | 0.20 | 93 | 1005.0 |
| 20260507020823 | 58 | 257 | 2.0 | 4.0 | 0.00 | 0.20 | 0.20 | 93 | 1005.0 |
| 20260507020322 | 58 | 263 | 1.0 | 6.0 | 0.00 | 0.20 | 0.20 | 93 | 1004.9 |
| 20260507015602 | 58 | 265 | 2.0 | 6.0 | 0.00 | 0.20 | 0.20 | 93 | 1005.0 |
| 20260507015325 | 58 | 217 | 1.0 | 5.0 | 0.00 | 0.20 | 0.20 | 93 | 1005.0 |
| 20260507014602 | 58 | 206 | 2.0 | 5.0 | 0.00 | 0.20 | 0.20 | 93 | 1004.9 |
| 20260507014101 | 58 | 267 | 2.0 | 4.0 | 0.00 | 0.20 | 0.20 | 93 | 1004.8 |
| 20260507013825 | 58 | 257 | 2.0 | 4.0 | 0.00 | 0.20 | 0.20 | 93 | 1004.9 |
| 20260507013101 | 58 | 267 | 2.0 | 5.0 | 0.00 | 0.20 | 0.20 | 93 | 1004.9 |
| 20260507012602 | 58 | 224 | 1.0 | 5.0 | 0.00 | 0.20 | 0.20 | 93 | 1004.9 |
| 20260507012102 | 58 | 239 | 2.0 | 5.0 | 0.00 | 0.20 | 0.20 | 93 | 1005.0 |
| 20260507011602 | 58 | 227 | 2.0 | 5.0 | 0.00 | 0.20 | 0.20 | 93 | 1004.9 |
| 20260507011333 | 58 | 254 | 2.0 | 7.0 | 0.00 | 0.20 | 0.20 | 93 | 1004.9 |
| 20260507010601 | 58 | 146 | 1.0 | 7.0 | 0.00 | 0.20 | 0.20 | 93 | 1005.0 |
| 20260507010100 | 58 | 246 | 2.0 | 5.0 | 0.00 | 0.20 | 0.20 | 93 | 1004.8 |
| 20260507005602 | 58 | 226 | 2.0 | 5.0 | 0.00 | 0.20 | 0.20 | 93 | 1005.0 |
| 20260507005325 | 58 | 266 | 1.0 | 5.0 | 0.00 | 0.20 | 0.20 | 93 | 1004.9 |
| 20260507004602 | 58 | 248 | 1.0 | 6.0 | 0.00 | 0.20 | 0.20 | 93 | 1004.9 |
| 20260507004101 | 58 | 229 | 2.0 | 7.0 | 0.00 | 0.20 | 0.20 | 93 | 1005.0 |
| 20260507003602 | 58 | 184 | 2.0 | 7.0 | 0.00 | 0.20 | 0.20 | 93 | 1004.8 |
| 20260507003100 | 58 | 190 | 1.0 | 9.0 | 0.00 | 0.20 | 0.20 | 93 | 1004.6 |
| 20260507002601 | 58 | 222 | 1.0 | 9.0 | 0.00 | 0.20 | 0.20 | 93 | 1004.7 |
| 20260507002100 | 58 | 262 | 2.0 | 7.0 | 0.00 | 0.20 | 0.20 | 93 | 1004.7 |
| 20260507001602 | 58 | 213 | 3.0 | 7.0 | 0.00 | 0.20 | 0.20 | 93 | 1004.8 |
| 20260507001100 | 58 | 256 | 2.0 | 10.0 | 0.00 | 0.20 | 0.20 | 93 | 1004.7 |
| 20260507000834 | 58 | 236 | 4.0 | 10.0 | 0.00 | 0.20 | 0.20 | 93 | 1004.7 |
| 20260506235601 | 58 | 227 | 2.0 | 5.0 | 0.00 | 0.20 | 0.20 | 93 | 1004.6 |
| 20260506235323 | 59 | 249 | 2.0 | 5.0 | 0.00 | 0.20 | 0.20 | 93 | 1004.5 |
| 20260506234602 | 59 | 262 | 2.0 | 7.0 | 0.00 | 0.20 | 0.20 | 93 | 1004.5 |
| 20260506234101 | 59 | 203 | 2.0 | 7.0 | 0.00 | 0.20 | 0.20 | 93 | 1004.4 |
| 20260506233603 | 59 | 262 | 2.0 | 7.0 | 0.00 | 0.20 | 0.20 | 93 | 1004.4 |
| 20260506233102 | 59 | 254 | 2.0 | 5.0 | 0.00 | 0.20 | 0.20 | 93 | 1004.4 |
| 20260506232602 | 59 | 243 | 2.0 | 4.0 | 0.00 | 0.20 | 0.20 | 93 | 1004.5 |
| 20260506232101 | 59 | 258 | 2.0 | 4.0 | 0.00 | 0.20 | 0.20 | 93 | 1004.6 |
| 20260506231603 | 59 | 236 | 2.0 | 5.0 | 0.00 | 0.20 | 0.20 | 93 | 1004.4 |
| 20260506231101 | 59 | 269 | 2.0 | 8.0 | 0.00 | 0.20 | 0.20 | 93 | 1004.6 |
| 20260506230603 | 59 | 242 | 2.0 | 8.0 | 0.00 | 0.20 | 0.20 | 93 | 1004.5 |
| 20260506225824 | 59 | 232 | 3.0 | 9.0 | 0.01 | 0.19 | 0.20 | 93 | 1004.8 |
| 20260506225101 | 59 | 216 | 3.0 | 9.0 | 0.01 | 0.19 | 0.20 | 93 | 1004.8 |
| 20260506224602 | 59 | 218 | 2.0 | 5.0 | 0.01 | 0.19 | 0.20 | 93 | 1004.9 |
| 20260506224323 | 59 | 240 | 1.0 | 5.0 | 0.01 | 0.19 | 0.20 | 93 | 1004.8 |
| 20260506223602 | 59 | 225 | 1.0 | 5.0 | 0.01 | 0.19 | 0.20 | 93 | 1004.8 |
| 20260506223101 | 59 | 229 | 1.0 | 5.0 | 0.01 | 0.19 | 0.20 | 93 | 1004.8 |
| 20260506222602 | 59 | 245 | 1.0 | 5.0 | 0.02 | 0.19 | 0.20 | 93 | 1004.9 |
| 20260506222100 | 59 | 265 | 1.0 | 7.0 | 0.03 | 0.19 | 0.20 | 93 | 1004.9 |
| 20260506221602 | 59 | 192 | 2.0 | 7.0 | 0.03 | 0.19 | 0.20 | 93 | 1005.0 |
| 20260506221101 | 59 | 277 | 1.0 | 5.0 | 0.03 | 0.19 | 0.20 | 93 | 1004.9 |
| 20260506220603 | 59 | 236 | 2.0 | 8.0 | 0.03 | 0.19 | 0.20 | 93 | 1005.0 |
| 20260506220101 | 59 | 217 | 3.0 | 8.0 | 0.04 | 0.19 | 0.19 | 93 | 1005.0 |
| 20260506215602 | 59 | 205 | 2.0 | 7.0 | 0.03 | 0.16 | 0.19 | 93 | 1005.0 |
| 20260506215101 | 59 | 200 | 2.0 | 8.0 | 0.03 | 0.16 | 0.19 | 93 | 1005.0 |
| 20260506214602 | 59 | 186 | 3.0 | 8.0 | 0.03 | 0.16 | 0.19 | 93 | 1005.1 |
| 20260506214101 | 59 | 234 | 3.0 | 7.0 | 0.04 | 0.16 | 0.19 | 93 | 1005.1 |
| 20260506213601 | 60 | 190 | 4.0 | 9.0 | 0.04 | 0.16 | 0.19 | 93 | 1005.1 |
| 20260506213101 | 60 | 257 | 3.0 | 9.0 | 0.04 | 0.16 | 0.18 | 93 | 1005.1 |
| 20260506212825 | 60 | 252 | 4.0 | 11.0 | 0.03 | 0.16 | 0.18 | 93 | 1005.2 |
| 20260506212101 | 60 | 246 | 2.0 | 11.0 | 0.02 | 0.16 | 0.17 | 92 | 1005.3 |
| 20260506211602 | 60 | 175 | 2.0 | 8.0 | 0.02 | 0.16 | 0.17 | 93 | 1005.1 |
| 20260506211101 | 60 | 192 | 3.0 | 9.0 | 0.03 | 0.16 | 0.17 | 93 | 1005.3 |
| 20260506210602 | 60 | 222 | 5.0 | 9.0 | 0.03 | 0.16 | 0.17 | 92 | 1005.4 |
| 20260506210101 | 60 | 204 | 2.0 | 8.0 | 0.02 | 0.16 | 0.16 | 92 | 1005.2 |
| 20260506205602 | 60 | 227 | 4.0 | 10.0 | 0.03 | 0.14 | 0.16 | 92 | 1005.3 |
| 20260506205100 | 61 | 223 | 3.0 | 10.0 | 0.03 | 0.14 | 0.16 | 92 | 1005.5 |
| 20260506204829 | 61 | 233 | 3.0 | 9.0 | 0.03 | 0.14 | 0.16 | 92 | 1005.5 |
| 20260506204326 | 61 | 249 | 3.0 | 9.0 | 0.03 | 0.14 | 0.15 | 92 | 1005.5 |
| 20260506203601 | 61 | 219 | 3.0 | 9.0 | 0.03 | 0.14 | 0.15 | 92 | 1005.5 |
| 20260506203101 | 61 | 225 | 3.0 | 12.0 | 0.03 | 0.14 | 0.15 | 92 | 1005.5 |
| 20260506202601 | 61 | 236 | 4.0 | 12.0 | 0.03 | 0.14 | 0.15 | 92 | 1005.5 |
| 20260506202102 | 61 | 281 | 3.0 | 10.0 | 0.03 | 0.14 | 0.15 | 92 | 1005.5 |
| 20260506201602 | 61 | 240 | 2.0 | 7.0 | 0.03 | 0.14 | 0.15 | 92 | 1005.6 |
| 20260506201101 | 61 | 205 | 2.0 | 8.0 | 0.02 | 0.14 | 0.14 | 92 | 1005.6 |
| 20260506200101 | 61 | 243 | 2.0 | 8.0 | 0.02 | 0.14 | 0.14 | 91 | 1005.7 |
| 20260506195827 | 61 | 226 | 2.0 | 5.0 | 0.01 | 0.12 | 0.13 | 91 | 1005.8 |
| 20260506194602 | 61 | 184 | 2.0 | 7.0 | 0.01 | 0.12 | 0.13 | 91 | 1005.9 |
| 20260506194101 | 61 | 255 | 2.0 | 7.0 | 0.01 | 0.12 | 0.12 | 91 | 1005.8 |
| 20260506193102 | 61 | 262 | 2.0 | 10.0 | 0.02 | 0.12 | 0.12 | 91 | 1005.7 |
| 20260506192602 | 61 | 224 | 3.0 | 10.0 | 0.03 | 0.12 | 0.12 | 91 | 1005.7 |
| 20260506192326 | 62 | 274 | 2.0 | 9.0 | 0.03 | 0.12 | 0.12 | 91 | 1005.6 |
| 20260506191603 | 62 | 229 | 3.0 | 9.0 | 0.04 | 0.12 | 0.12 | 90 | 1005.6 |
| 20260506191101 | 62 | 205 | 2.0 | 7.0 | 0.06 | 0.12 | 0.12 | 90 | 1005.5 |
| 20260506190827 | 62 | 225 | 1.0 | 5.0 | 0.07 | 0.12 | 0.12 | 90 | 1005.6 |
| 20260506190101 | 62 | 212 | 2.0 | 5.0 | 0.08 | 0.12 | 0.12 | 90 | 1005.8 |
| 20260506185602 | 62 | 209 | 1.0 | 3.0 | 0.09 | 0.04 | 0.12 | 90 | 1005.9 |
| 20260506185100 | 62 | 234 | 0.0 | 3.0 | 0.09 | 0.04 | 0.12 | 89 | 1005.9 |
| 20260506184603 | 62 | 221 | 2.0 | 7.0 | 0.10 | 0.04 | 0.11 | 89 | 1005.9 |
| 20260506184100 | 62 | 240 | 2.0 | 7.0 | 0.10 | 0.04 | 0.11 | 89 | 1006.0 |
| 20260506183828 | 62 | 228 | 1.0 | 4.0 | 0.09 | 0.04 | 0.10 | 88 | 1006.3 |
| 20260506183102 | 62 | 253 | 2.0 | 4.0 | 0.10 | 0.04 | 0.10 | 88 | 1006.3 |
| 20260506182601 | 62 | 243 | 2.0 | 7.0 | 0.09 | 0.04 | 0.09 | 87 | 1006.4 |
| 20260506182326 | 62 | 275 | 2.0 | 7.0 | 0.09 | 0.04 | 0.08 | 86 | 1006.5 |
| 20260506181602 | 63 | 259 | 1.0 | 4.0 | 0.08 | 0.04 | 0.07 | 85 | 1006.6 |
| 20260506181321 | 63 | 265 | 1.0 | 4.0 | 0.06 | 0.04 | 0.06 | 84 | 1006.6 |
| 20260506180602 | 64 | 261 | 1.0 | 4.0 | 0.05 | 0.04 | 0.05 | 83 | 1006.6 |
| 20260506180321 | 64 | 265 | 2.0 | 7.0 | 0.04 | 0.04 | 0.04 | 82 | 1006.6 |
| 20260506175602 | 64 | 266 | 3.0 | 7.0 | 0.03 | 0.00 | 0.03 | 80 | 1006.7 |
| 20260506175100 | 65 | 259 | 0.0 | 5.0 | 0.03 | 0.00 | 0.03 | 80 | 1006.8 |
| 20260506174602 | 66 | 253 | 1.0 | 3.0 | 0.02 | 0.00 | 0.02 | 78 | 1006.7 |
| 20260506174100 | 66 | 257 | 1.0 | 4.0 | 0.01 | 0.00 | 0.01 | 75 | 1006.8 |
| 20260506173602 | 67 | 227 | 2.0 | 7.0 | 0.01 | 0.00 | 0.01 | 72 | 1006.8 |
| 20260506173101 | 68 | 257 | 2.0 | 7.0 | 0.00 | 0.00 | 0.00 | 70 | 1006.6 |
| 20260506172602 | 69 | 210 | 2.0 | 7.0 | 0.00 | 0.00 | 0.00 | 59 | 1006.3 |
| 20260506172101 | 69 | 182 | 3.0 | 7.0 | 0.00 | 0.00 | 0.00 | 63 | 1006.2 |
| 20260506171602 | 70 | 251 | 2.0 | 7.0 | 0.00 | 0.00 | 0.00 | 62 | 1006.0 |
| 20260506171319 | 70 | 126 | 3.0 | 7.0 | 0.00 | 0.00 | 0.00 | 62 | 1006.2 |
| 20260506170602 | 70 | 259 | 2.0 | 8.0 | 0.00 | 0.00 | 0.00 | 62 | 1006.2 |
| 20260506170100 | 70 | 261 | 3.0 | 9.0 | 0.00 | 0.00 | 0.00 | 63 | 1006.2 |
| 20260506165825 | 70 | 205 | 4.0 | 9.0 | 0.00 | 0.00 | 0.00 | 62 | 1006.3 |
| 20260506165101 | 70 | 233 | 4.0 | 8.0 | 0.00 | 0.00 | 0.00 | 55 | 1006.3 |
| 20260506164603 | 70 | 229 | 4.0 | 7.0 | 0.00 | 0.00 | 0.00 | 62 | 1006.4 |
| 20260506164102 | 71 | 257 | 3.0 | 9.0 | 0.00 | 0.00 | 0.00 | 63 | 1006.4 |
| 20260506163602 | 70 | 267 | 4.0 | 10.0 | 0.00 | 0.00 | 0.00 | 62 | 1006.4 |
| 20260506162824 | 70 | 306 | 3.0 | 7.0 | 0.00 | 0.00 | 0.00 | 63 | 1006.6 |
| 20260506162101 | 70 | 271 | 4.0 | 8.0 | 0.00 | 0.00 | 0.00 | 63 | 1006.8 |
| 20260506161603 | 70 | 208 | 3.0 | 8.0 | 0.00 | 0.00 | 0.00 | 56 | 1006.8 |
| 20260506161327 | 70 | 207 | 3.0 | 7.0 | 0.00 | 0.00 | 0.00 | 63 | 1006.9 |
| 20260506160601 | 70 | 196 | 2.0 | 7.0 | 0.00 | 0.00 | 0.00 | 65 | 1007.0 |
| 20260506155602 | 69 | 220 | 4.0 | 13.0 | 0.00 | 0.00 | 0.00 | 65 | 1007.4 |
| 20260506155325 | 69 | 188 | 3.0 | 7.0 | 0.00 | 0.00 | 0.00 | 66 | 1007.5 |
| 20260506154602 | 69 | 186 | 2.0 | 7.0 | 0.00 | 0.00 | 0.00 | 66 | 1007.7 |
| 20260506154101 | 69 | 186 | 1.0 | 9.0 | 0.00 | 0.00 | 0.00 | 67 | 1007.7 |
| 20260506153602 | 69 | 265 | 3.0 | 9.0 | 0.00 | 0.00 | 0.00 | 67 | 1007.8 |
| 20260506153101 | 69 | 202 | 3.0 | 8.0 | 0.00 | 0.00 | 0.00 | 66 | 1007.8 |
| 20260506152602 | 69 | 199 | 2.0 | 7.0 | 0.00 | 0.00 | 0.00 | 67 | 1007.9 |
| 20260506152330 | 69 | 126 | 2.0 | 7.0 | 0.00 | 0.00 | 0.00 | 66 | 1008.0 |
| 20260506151602 | 69 | 305 | 1.0 | 8.0 | 0.00 | 0.00 | 0.00 | 59 | 1008.0 |
| 20260506151101 | 69 | 143 | 4.0 | 8.0 | 0.00 | 0.00 | 0.00 | 67 | 1008.0 |
| 20260506150602 | 68 | 200 | 2.0 | 7.0 | 0.00 | 0.00 | 0.00 | 68 | 1008.2 |
| 20260506150100 | 68 | 166 | 2.0 | 10.0 | 0.00 | 0.00 | 0.00 | 68 | 1007.9 |
| 20260506145602 | 68 | 170 | 4.0 | 10.0 | 0.00 | 0.00 | 0.00 | 68 | 1007.9 |
| 20260506145101 | 68 | 186 | 2.0 | 7.0 | 0.00 | 0.00 | 0.00 | 60 | 1007.9 |
| 20260506144602 | 68 | 244 | 2.0 | 6.0 | 0.00 | 0.00 | 0.00 | 70 | 1008.1 |
| 20260506144101 | 68 | 272 | 1.0 | 7.0 | 0.00 | 0.00 | 0.00 | 70 | 1008.0 |
| 20260506143602 | 67 | 226 | 4.0 | 7.0 | 0.00 | 0.00 | 0.00 | 69 | 1008.0 |